Location: Baller�as
(41.9020°N, 0.1554°W)
Time: 01:37:55
(UTC+00:00)

Cosmos 2242 Rocket - Pass Details

Date: 10 August 2020
Orbit: 618 x 652 km, 82.5° (Epoch: 22 September)

Event Time Altitude Azimuth Distance (km) Brightness Sun altitude
Rises 21:25:19 0° 353° (N) 2,921 7.9 -21.9°
Reaches altitude 10° 21:27:34 10° 356° (N) 2,005 6.9 -22.2°
Maximum altitude 21:32:00 73° 81° (E) 652 3.5 -22.8°
Enters shadow 21:32:10 72° 103° (ESE) 656 3.4 -22.8°
